Location: Coche
(10.4506°N, 66.9257°W)
Time: 14:11:35
(UTC+00:00)

Envisat - Pass Details

Date: 03 December 2022
Orbit: 763 x 765 km, 98.2° (Epoch: 27 January)

Event Time Altitude Azimuth Distance (km) Brightness Sun altitude
Exits shadow 08:00:00 25° 150° (SSE) 1,520 4.9 -35.6°
Drops below altitude 10° 08:02:21 10° 168° (SSE) 2,293 5.8 -35.1°
Sets 08:04:48 0° 176° (S) 3,218 6.5 -34.5°
